Hourly Weather Kozyuli

Today, 21 October, Wednesday

Time Temperature Precipitation Wind Pressure Humidity
00:00 +1°C° 0 mm 2 mps 752 mmHg 83%
01:00 +1°C° 0 mm 2 mps 752 mmHg 85%
02:00 +1°C° 0 mm 2 mps 752 mmHg 85%
03:00 +2°C° 0 mm 2 mps 751 mmHg 85%
04:00 +2°C° 0 mm 2 mps 751 mmHg 85%
05:00 +2°C° 0 mm 2 mps 750 mmHg 86%
06:00 +2°C° 0 mm 3 mps 750 mmHg 85%
07:00 +2°C° 0 mm 3 mps 750 mmHg 84%
08:00 +2°C° 0 mm 3 mps 750 mmHg 83%
09:00 +2°C° 0.6 mm 3 mps 749 mmHg 86%
10:00 +3°C° 0.6 mm 4 mps 749 mmHg 89%
11:00 +3°C° 0.6 mm 4 mps 749 mmHg 92%
12:00 +3°C° 0.6 mm 4 mps 748 mmHg 92%
13:00 +3°C° 0.6 mm 3 mps 748 mmHg 92%
14:00 +3°C° 0 mm 3 mps 747 mmHg 92%
15:00 +4°C° 0 mm 3 mps 747 mmHg 93%
16:00 +5°C° 0 mm 2 mps 746 mmHg 94%
17:00 +5°C° 0 mm 2 mps 746 mmHg 95%
18:00 +5°C° 0 mm 2 mps 746 mmHg 95%
19:00 +5°C° 0 mm 2 mps 746 mmHg 96%
20:00 +6°C° 0 mm 1 mps 746 mmHg 96%
21:00 +6°C° 0 mm 1 mps 746 mmHg 97%
22:00 +6°C° 0 mm 1 mps 746 mmHg 97%
23:00 +6°C° 0 mm 1 mps 746 mmHg 97%

Tomorrow, 22 October, Thursday

Time Temperature Precipitation Wind Pressure Humidity
00:00 +5°C° 0 mm 2 mps 746 mmHg 97%
01:00 +5°C° 0 mm 2 mps 746 mmHg 97%
02:00 +5°C° 0 mm 2 mps 746 mmHg 97%
03:00 +5°C° 0 mm 2 mps 746 mmHg 97%
04:00 +5°C° 0 mm 2 mps 745 mmHg 96%
05:00 +4°C° 0 mm 3 mps 745 mmHg 96%
06:00 +4°C° 0.2 mm 3 mps 745 mmHg 95%
07:00 +4°C° 0.2 mm 3 mps 744 mmHg 94%
08:00 +5°C° 0.2 mm 4 mps 744 mmHg 93%
09:00 +5°C° 0.8 mm 4 mps 744 mmHg 94%
10:00 +5°C° 0.8 mm 4 mps 743 mmHg 94%
11:00 +6°C° 0.8 mm 4 mps 743 mmHg 95%
12:00 +7°C° 0.2 mm 5 mps 742 mmHg 93%
13:00 +7°C° 0.2 mm 5 mps 742 mmHg 91%
14:00 +8°C° 0.2 mm 5 mps 742 mmHg 89%
15:00 +8°C° 0 mm 5 mps 741 mmHg 89%
16:00 +9°C° 0 mm 5 mps 741 mmHg 88%
17:00 +9°C° 0 mm 5 mps 740 mmHg 88%
18:00 +10°C° 0 mm 5 mps 740 mmHg 87%
19:00 +10°C° 0 mm 5 mps 740 mmHg 86%
20:00 +11°C° 0 mm 6 mps 740 mmHg 85%
21:00 +11°C° 0 mm 6 mps 740 mmHg 85%
22:00 +11°C° 0 mm 6 mps 740 mmHg 84%
23:00 +11°C° 0 mm 7 mps 740 mmHg 83%

Day after tomorrow, 23 October, Friday

Time Temperature Precipitation Wind Pressure Humidity
00:00 +11°C° 0 mm 6 mps 740 mmHg 84%
01:00 +10°C° 0 mm 6 mps 741 mmHg 85%
02:00 +10°C° 0 mm 5 mps 741 mmHg 86%
03:00 +10°C° 0 mm 5 mps 741 mmHg 88%
04:00 +9°C° 0 mm 5 mps 741 mmHg 89%
05:00 +10°C° 0 mm 4 mps 741 mmHg 91%
06:00 +10°C° 0 mm 4 mps 741 mmHg 91%
07:00 +10°C° 0 mm 4 mps 741 mmHg 91%
08:00 +10°C° 0 mm 4 mps 741 mmHg 91%
09:00 +11°C° 0 mm 4 mps 741 mmHg 89%
10:00 +11°C° 0 mm 4 mps 741 mmHg 87%
11:00 +12°C° 0 mm 5 mps 741 mmHg 85%
12:00 +12°C° 0.3 mm 4 mps 740 mmHg 85%
13:00 +12°C° 0.3 mm 4 mps 740 mmHg 85%
14:00 +13°C° 0.3 mm 4 mps 739 mmHg 86%
15:00 +12°C° 0.9 mm 4 mps 739 mmHg 87%
16:00 +12°C° 0.9 mm 5 mps 739 mmHg 89%
17:00 +12°C° 0.9 mm 5 mps 739 mmHg 91%
18:00 +12°C° 0.3 mm 5 mps 739 mmHg 91%
19:00 +10°C° 0.3 mm 5 mps 739 mmHg 90%
20:00 +11°C° 0.3 mm 4 mps 739 mmHg 90%
21:00 +10°C° 0.1 mm 4 mps 739 mmHg 89%
22:00 +10°C° 0.1 mm 4 mps 739 mmHg 89%
23:00 +8°C° 0.1 mm 4 mps 740 mmHg 88%

24 October, Saturday

Time Temperature Precipitation Wind Pressure Humidity
00:00 +8°C° 0 mm 4 mps 740 mmHg 89%
01:00 +7°C° 0 mm 4 mps 740 mmHg 90%
02:00 +7°C° 0 mm 4 mps 740 mmHg 91%
03:00 +7°C° 0 mm 3 mps 740 mmHg 92%
04:00 +7°C° 0 mm 3 mps 741 mmHg 93%
05:00 +7°C° 0 mm 2 mps 741 mmHg 95%
06:00 +7°C° 0 mm 2 mps 741 mmHg 95%
07:00 +7°C° 0 mm 2 mps 741 mmHg 94%
08:00 +7°C° 0 mm 2 mps 741 mmHg 94%
09:00 +8°C° 0 mm 2 mps 742 mmHg 90%
10:00 +8°C° 0 mm 3 mps 742 mmHg 86%
11:00 +9°C° 0 mm 3 mps 742 mmHg 82%
12:00 +10°C° 0 mm 3 mps 742 mmHg 81%
13:00 +10°C° 0 mm 2 mps 742 mmHg 79%
14:00 +10°C° 0 mm 2 mps 742 mmHg 77%
15:00 +9°C° 0 mm 2 mps 742 mmHg 82%
16:00 +10°C° 0 mm 1 mps 742 mmHg 87%
17:00 +9°C° 0 mm 1 mps 742 mmHg 91%
18:00 +9°C° 0 mm 1 mps 742 mmHg 92%
19:00 +8°C° 0 mm 1 mps 742 mmHg 93%
20:00 +8°C° 0 mm 1 mps 742 mmHg 94%
21:00 +8°C° 0 mm 1 mps 741 mmHg 95%
22:00 +8°C° 0 mm 1 mps 741 mmHg 95%
23:00 +7°C° 0 mm 0 mps 741 mmHg 96%

25 October, Sunday

Time Temperature Precipitation Wind Pressure Humidity
00:00 +7°C° 0 mm 0 mps 741 mmHg 96%
01:00 +7°C° 0 mm 0 mps 741 mmHg 96%
02:00 +7°C° 0 mm 0 mps 741 mmHg 96%
03:00 +7°C° 0.3 mm 0 mps 741 mmHg 96%
04:00 +8°C° 0.3 mm 1 mps 741 mmHg 96%
05:00 +8°C° 0.3 mm 1 mps 741 mmHg 96%
06:00 +8°C° 0 mm 1 mps 741 mmHg 95%
07:00 +8°C° 0 mm 1 mps 741 mmHg 94%
08:00 +8°C° 0 mm 1 mps 742 mmHg 93%
09:00 +9°C° 0 mm 1 mps 742 mmHg 91%
10:00 +9°C° 0 mm 1 mps 743 mmHg 90%
11:00 +9°C° 0 mm 1 mps 743 mmHg 88%
12:00 +9°C° 0 mm 2 mps 744 mmHg 88%
13:00 +9°C° 0 mm 2 mps 744 mmHg 87%
14:00 +9°C° 0 mm 2 mps 744 mmHg 87%
15:00 +9°C° 0 mm 2 mps 745 mmHg 88%
16:00 +8°C° 0 mm 2 mps 745 mmHg 90%
17:00 +8°C° 0 mm 2 mps 745 mmHg 91%
18:00 +8°C° 0 mm 2 mps 746 mmHg 92%
19:00 +7°C° 0 mm 2 mps 747 mmHg 92%
20:00 +7°C° 0 mm 2 mps 747 mmHg 93%
21:00 +7°C° 0 mm 2 mps 747 mmHg 93%
22:00 +6°C° 0 mm 2 mps 748 mmHg 94%
23:00 +6°C° 0 mm 2 mps 748 mmHg 94%

26 October, Monday

Time Temperature Precipitation Wind Pressure Humidity
00:00 +7°C° 0 mm 1 mps 749 mmHg 95%
01:00 +6°C° 0 mm 1 mps 749 mmHg 96%
02:00 +6°C° 0 mm 1 mps 749 mmHg 96%
03:00 +6°C° 0 mm 1 mps 749 mmHg 96%
04:00 +6°C° 0 mm 1 mps 750 mmHg 96%
05:00 +5°C° 0 mm 1 mps 750 mmHg 97%
06:00 +5°C° 0 mm 1 mps 751 mmHg 96%
07:00 +5°C° 0 mm 1 mps 751 mmHg 96%
08:00 +5°C° 0 mm 1 mps 751 mmHg 96%
09:00 +6°C° 0 mm 0 mps 752 mmHg 90%
10:00 +7°C° 0 mm 0 mps 752 mmHg 84%
11:00 +9°C° 0 mm 0 mps 752 mmHg 79%
12:00 +9°C° 0 mm 0 mps 752 mmHg 77%
13:00 +9°C° 0 mm 0 mps 753 mmHg 76%
14:00 +10°C° 0 mm 1 mps 753 mmHg 74%
15:00 +9°C° 0 mm 1 mps 753 mmHg 79%
16:00 +8°C° 0 mm 1 mps 753 mmHg 85%
17:00 +7°C° 0 mm 1 mps 753 mmHg 90%
18:00 +7°C° 0 mm 1 mps 753 mmHg 91%
19:00 +7°C° 0 mm 1 mps 753 mmHg 93%
20:00 +6°C° 0 mm 1 mps 753 mmHg 94%
21:00 +6°C° 0 mm 1 mps 754 mmHg 94%
22:00 +5°C° 0 mm 2 mps 754 mmHg 95%
23:00 +5°C° 0 mm 2 mps 754 mmHg 95%

27 October, Tuesday

Time Temperature Precipitation Wind Pressure Humidity
00:00 +4°C° 0 mm 2 mps 754 mmHg 96%
01:00 +4°C° 0 mm 2 mps 754 mmHg 96%
02:00 +4°C° 0 mm 2 mps 754 mmHg 96%
03:00 +4°C° 0 mm 2 mps 754 mmHg 97%
04:00 +4°C° 0 mm 2 mps 754 mmHg 97%
05:00 +4°C° 0 mm 2 mps 755 mmHg 97%
06:00 +4°C° 0 mm 2 mps 755 mmHg 97%
07:00 +4°C° 0 mm 2 mps 755 mmHg 97%
08:00 +4°C° 0 mm 2 mps 755 mmHg 96%
09:00 +5°C° 0 mm 3 mps 755 mmHg 92%
10:00 +7°C° 0 mm 3 mps 755 mmHg 87%
11:00 +8°C° 0 mm 3 mps 755 mmHg 82%
12:00 +9°C° 0 mm 3 mps 755 mmHg 80%
13:00 +9°C° 0 mm 3 mps 755 mmHg 78%
14:00 +10°C° 0 mm 3 mps 754 mmHg 76%
15:00 +9°C° 0 mm 3 mps 754 mmHg 80%
16:00 +8°C° 0 mm 3 mps 754 mmHg 84%
17:00 +7°C° 0 mm 3 mps 754 mmHg 89%
18:00 +5°C° 0 mm 3 mps 754 mmHg 88%
19:00 +5°C° 0 mm 3 mps 754 mmHg 88%
20:00 +5°C° 0 mm 3 mps 754 mmHg 88%
21:00 +5°C° 0 mm 3 mps 754 mmHg 87%
22:00 +5°C° 0 mm 3 mps 754 mmHg 86%
23:00 +5°C° 0 mm 3 mps 754 mmHg 85%
Show more